sat.trackr.live / text

‹ back to catalog

SPIRONE

NORAD 66657 · 2025-274H

PAYLOAD ACTIVE UNKNOWN

§ Identity

Operator
Country
SKOR
Launch date
2025-11-26
Launch site
NSC
Launch vehicle
Mass (kg)
RCS (m²)

External: N2YO · Heavens-Above · Gunter

§ Orbital elements

Epoch: 2026-09-20T10:42:11.827008Z

Period
96.39 min
Inclination
97.7484°
Eccentricity
0.0013458
Mean motion
14.93858997 rev/d
Perigee alt
576.5 km
Apogee alt
595.3 km
Semi-major
6,964.1 km
B*
1.0277e-4
RAAN
191.3935°
Arg perigee
60.5566°
Mean anomaly
299.6995°
Rev number
4,444

§ Raw data

SPIRONE1 66657U 25274H   26263.44597022  .00001036  00000+0  10277-3 0  99912 66657  97.7484 191.3935 0013458  60.5566 299.6995 14.93858997 44449

JSON: /api/v1/satellites/66657 · /tle

For live sub-satellite position, see the globe view (requires WebGL).

§ Visibility from observer

Set your observer location to see the next 7 days of passes ≥ 10°. The values pass through the URL so the page stays shareable.

No JS? Fill the form by hand. The geolocation button needs JavaScript.